Location: Newark
(43.6486°N, 79.3853°W)
Time: 02:42:48
(UTC+00:00)

STARLINK-1293 - Pass Details

Date: 08 April 2020
Orbit: 379 x 380 km, 53.0° (Epoch: 03 June)

Event Time Altitude Azimuth Distance (km) Brightness Sun altitude
Exits shadow 08:38:33 13° 337° (NNW) 1,263 5.6 -21.9°
Drops below altitude 10° 08:41:52 10° 45° (NE) 1,425 6.9 -21.5°
Enters shadow 09:38:03 -71° 277° (W) 12,455 10.4 -12.6°
Maximum altitude 10:16:34 33° 25° (NNE) 684 4.6 -6.0°
